CDT,Max TemperatureF,Mean TemperatureF,Min TemperatureF,Max Dew PointF,MeanDew PointF,Min DewpointF,Max Humidity, Mean Humidity, Min Humidity, Max Sea Level PressureIn, Mean Sea Level PressureIn, Min Sea Level PressureIn, Max VisibilityMiles, Mean VisibilityMiles, Min VisibilityMiles, Max Wind SpeedMPH, Mean Wind SpeedMPH, Max Gust SpeedMPH,PrecipitationIn, CloudCover, Events, WindDirDegrees
2012-3-1,72,55,38,40,35,29,97,54,21,29.98,29.89,29.77,10,10,10,7,2,,0.00,0,,219
2012-3-2,82,65,45,65,56,31,94,73,42,29.83,29.65,29.48,10,10,2,24,9,36,0.11,5,Rain-Thunderstorm,230
2012-3-3,61,46,32,32,27,22,93,51,23,29.99,29.91,29.83,10,10,10,14,9,21,0.00,0,,334
2012-3-4,54,41,28,31,24,20,92,50,28,30.03,29.96,29.87,10,10,10,20,7,28,0.00,1,,277
2012-3-5,52,42,30,31,24,17,82,49,28,30.47,30.35,29.93,10,10,9,29,15,37,0.00,2,,2
2012-3-6,68,48,28,27,25,21,89,45,17,30.46,30.40,30.31,10,10,10,15,7,23,0.00,0,,178
2012-3-7,70,59,48,48,43,27,66,52,42,30.40,30.31,30.23,10,10,10,20,10,31,0.00,2,,182
2012-3-8,65,54,42,58,51,39,100,87,58,30.32,30.17,30.04,10,6,1,25,11,30,1.27,6,Rain,333
2012-3-9,61,49,36,39,30,25,89,57,26,30.48,30.42,30.35,10,10,10,18,11,24,0.00,0,Rain,6
2012-3-10,68,50,31,36,28,23,89,53,21,30.49,30.41,30.32,10,10,10,9,4,,0.00,0,,39
2012-3-11,70,51,32,51,42,32,100,65,40,30.42,30.31,30.22,10,10,10,15,5,21,0.00,2,,175
2012-3-12,70,66,61,59,56,51,90,73,60,30.22,30.14,30.09,10,10,10,15,11,25,0.00,5,Rain,189
2012-3-13,82,70,55,63,58,51,94,70,36,30.20,30.16,30.09,10,10,10,13,6,17,0.00,3,,226
2012-3-14,86,67,50,61,55,46,100,66,38,30.25,30.18,30.12,10,10,8,12,2,16,0.00,1,Rain,213
2012-3-15,86,72,59,65,61,57,100,85,47,30.26,30.20,30.12,10,7,0,15,4,30,0.47,2,Fog-Rain,209
2012-3-16,75,64,54,63,58,55,100,95,55,30.24,30.17,30.11,10,6,0,10,2,,0.33,3,Fog-Rain-Thunderstorm,178
2012-3-17,82,68,54,63,59,54,100,82,49,30.20,30.15,30.10,10,9,4,14,2,18,0.08,3,Rain,220
2012-3-18,83,68,53,63,56,47,100,76,38,30.23,30.16,30.10,10,7,0,9,1,,0.01,1,Fog,197
2012-3-19,83,68,54,58,54,48,86,59,38,30.17,30.09,30.03,10,10,10,12,3,16,0.00,0,,189
2012-3-20,88,72,57,60,57,55,97,71,37,30.12,30.05,29.98,10,8,1,17,2,25,0.00,0,,177
2012-3-21,83,68,54,59,56,53,93,63,39,30.14,30.09,30.06,10,10,10,21,5,26,0.00,0,,154
2012-3-22,75,67,59,64,60,56,100,82,60,30.13,30.08,30.02,10,8,0,13,5,32,0.05,2,Fog-Rain,165
2012-3-23,81,69,57,64,57,46,100,70,34,30.05,29.93,29.81,10,10,7,15,5,26,0.00,3,,217
2012-3-24,64,56,47,54,49,46,100,82,56,29.94,29.90,29.85,10,8,1,17,3,21,0.17,4,Rain,304
2012-3-25,77,60,43,55,48,44,100,88,45,30.03,29.96,29.93,10,5,0,14,1,,0.00,1,Fog,348
2012-3-26,79,62,46,58,49,44,100,75,34,30.15,30.09,30.03,10,6,0,14,2,17,0.00,0,Fog,41
2012-3-27,82,64,46,53,46,38,71,53,32,30.20,30.13,30.06,10,10,10,9,3,,0.00,0,,208
2012-3-28,86,70,54,59,54,50,84,58,37,30.11,30.03,29.95,10,10,10,15,5,23,0.00,2,,228
2012-3-29,86,71,55,59,54,52,93,60,33,30.02,29.95,29.90,10,10,7,9,4,,0.00,1,,250
2012-3-30,79,66,56,64,58,54,100,78,53,29.94,29.89,29.83,10,10,7,12,3,16,0.00,1,,212
2012-3-31,82,68,55,66,59,55,100,92,58,29.91,29.88,29.80,10,4,0,8,1,,0.00,3,Fog,135